When you browse on this site, cookies collect data to enhance your experience and personalize the content and advertising you see.
Visit our Privacy Policy to learn more. By continuing to use the site, you agree to this use of cookies and data.
  • In Germany
  • List of Countries
  • For 7 days
  • Water Temperature
  • Satellite Maps
  • Weather Map
  • Weather Widgets
  • user-avatar
    Login

    Hourly Weather Sarajevo

    Today, 22 January, Tuesday

    Time Temperature Precipitation Wind Pressure Humidity
    00:00 +2°C° 0.8 mm 1 mps 684 mmHg 96%
    01:00 +2°C° 0 mm 1 mps 684 mmHg 97%
    02:00 +2°C° 1.1 mm 1 mps 684 mmHg 97%
    03:00 +2°C° 1.1 mm 1 mps 683 mmHg 97%
    04:00 +2°C° 1.1 mm 1 mps 683 mmHg 97%
    05:00 +2°C° 1.6 mm 1 mps 682 mmHg 97%
    06:00 +2°C° 1.6 mm 1 mps 682 mmHg 97%
    07:00 -1°C° 0 mm 2 mps 682 mmHg 97%
    08:00 -1°C° 2.1 mm 2 mps 682 mmHg 97%
    09:00 -1°C° 2.1 mm 2 mps 681 mmHg 97%
    10:00 -1°C° 2.1 mm 2 mps 681 mmHg 98%
    11:00 +2°C° 2.2 mm 1 mps 680 mmHg 98%
    12:00 +2°C° 2.2 mm 1 mps 680 mmHg 98%
    13:00 +2°C° 2.2 mm 1 mps 679 mmHg 98%
    14:00 +1°C° 3.5 mm 2 mps 679 mmHg 98%
    15:00 +1°C° 3.5 mm 2 mps 678 mmHg 98%
    16:00 +1°C° 3.5 mm 2 mps 677 mmHg 98%
    17:00 -1°C° 4.4 mm 2 mps 677 mmHg 98%
    18:00 -1°C° 4.4 mm 2 mps 676 mmHg 98%
    19:00 -1°C° 4.4 mm 2 mps 676 mmHg 98%
    20:00 +1°C° 2.9 mm 1 mps 676 mmHg 98%
    21:00 +1°C° 2.9 mm 1 mps 676 mmHg 98%
    22:00 +1°C° 2.9 mm 1 mps 676 mmHg 98%
    23:00 +1°C° 0.4 mm 2 mps 676 mmHg 98%

    Tomorrow, 23 January, Wednesday

    Time Temperature Precipitation Wind Pressure Humidity
    00:00 +1°C° 0.4 mm 2 mps 676 mmHg 98%
    01:00 +1°C° 0.4 mm 3 mps 676 mmHg 98%
    02:00 0°C° 0.2 mm 4 mps 676 mmHg 98%
    03:00 0°C° 0.2 mm 4 mps 675 mmHg 97%
    04:00 0°C° 0.2 mm 4 mps 675 mmHg 96%
    05:00 -1°C° 0.3 mm 4 mps 675 mmHg 96%
    06:00 -1°C° 0.3 mm 4 mps 675 mmHg 96%
    07:00 -1°C° 0.3 mm 4 mps 675 mmHg 96%
    08:00 -1°C° 0.4 mm 4 mps 675 mmHg 96%
    09:00 0°C° 0.4 mm 3 mps 675 mmHg 96%
    10:00 +1°C° 0.4 mm 3 mps 675 mmHg 96%
    11:00 +1°C° 0.4 mm 3 mps 674 mmHg 97%
    12:00 +1°C° 0.4 mm 3 mps 674 mmHg 97%
    13:00 +1°C° 0.4 mm 3 mps 673 mmHg 97%
    14:00 +1°C° 0.2 mm 2 mps 673 mmHg 96%
    15:00 +1°C° 0.2 mm 2 mps 673 mmHg 95%
    16:00 +1°C° 0.2 mm 2 mps 673 mmHg 94%
    17:00 -1°C° 0.1 mm 2 mps 673 mmHg 95%
    18:00 -1°C° 0.1 mm 2 mps 673 mmHg 95%
    19:00 0°C° 0.1 mm 1 mps 673 mmHg 95%
    20:00 -1°C° 0 mm 1 mps 673 mmHg 94%
    21:00 -2°C° 0 mm 1 mps 673 mmHg 93%
    22:00 -2°C° 0 mm 1 mps 673 mmHg 92%
    23:00 -3°C° 0 mm 1 mps 673 mmHg 90%

    Day after tomorrow, 24 January, Thursday

    Time Temperature Precipitation Wind Pressure Humidity
    00:00 -3°C° 0 mm 1 mps 673 mmHg 89%
    01:00 -4°C° 0 mm 1 mps 672 mmHg 88%
    02:00 -4°C° 0 mm 1 mps 672 mmHg 88%
    03:00 -6°C° 0 mm 2 mps 672 mmHg 87%
    04:00 -7°C° 0 mm 2 mps 672 mmHg 87%
    05:00 -7°C° 0 mm 2 mps 672 mmHg 88%
    06:00 -7°C° 0 mm 2 mps 672 mmHg 90%
    07:00 -7°C° 0 mm 2 mps 672 mmHg 91%
    08:00 -7°C° 0 mm 3 mps 672 mmHg 92%
    09:00 -5°C° 0 mm 3 mps 672 mmHg 92%
    10:00 -4°C° 0 mm 3 mps 673 mmHg 93%
    11:00 -2°C° 0.3 mm 3 mps 673 mmHg 93%
    12:00 -2°C° 0.3 mm 3 mps 673 mmHg 93%
    13:00 -2°C° 0.3 mm 3 mps 673 mmHg 94%
    14:00 -2°C° 0.5 mm 3 mps 673 mmHg 94%
    15:00 -2°C° 0.5 mm 3 mps 673 mmHg 94%
    16:00 -2°C° 0.5 mm 3 mps 673 mmHg 94%
    17:00 -4°C° 0.3 mm 3 mps 673 mmHg 94%
    18:00 -4°C° 0.3 mm 3 mps 673 mmHg 94%
    19:00 -4°C° 0.3 mm 3 mps 674 mmHg 94%
    20:00 -5°C° 0.2 mm 4 mps 674 mmHg 93%
    21:00 -5°C° 0.2 mm 4 mps 674 mmHg 93%
    22:00 -5°C° 0.2 mm 4 mps 674 mmHg 93%
    23:00 -5°C° 0.1 mm 4 mps 674 mmHg 92%

    25 January, Friday

    Time Temperature Precipitation Wind Pressure Humidity
    00:00 -7°C° 0.1 mm 4 mps 673 mmHg 92%
    01:00 -7°C° 0.1 mm 4 mps 673 mmHg 92%
    02:00 -7°C° 0.1 mm 4 mps 673 mmHg 92%
    03:00 -7°C° 0.1 mm 4 mps 673 mmHg 92%
    04:00 -7°C° 0.1 mm 4 mps 673 mmHg 92%
    05:00 -7°C° 0.1 mm 4 mps 673 mmHg 92%
    06:00 -7°C° 0.1 mm 4 mps 673 mmHg 92%
    07:00 -7°C° 0.1 mm 4 mps 673 mmHg 92%
    08:00 -7°C° 0 mm 4 mps 674 mmHg 92%
    09:00 -7°C° 0 mm 4 mps 674 mmHg 91%
    10:00 -5°C° 0 mm 4 mps 674 mmHg 91%
    11:00 -5°C° 0 mm 4 mps 674 mmHg 91%
    12:00 -6°C° 0 mm 5 mps 674 mmHg 91%
    13:00 -5°C° 0 mm 5 mps 673 mmHg 91%
    14:00 -6°C° 0 mm 5 mps 673 mmHg 90%
    15:00 -7°C° 0 mm 5 mps 673 mmHg 90%
    16:00 -7°C° 0 mm 4 mps 673 mmHg 90%
    17:00 -8°C° 0.1 mm 4 mps 673 mmHg 90%
    18:00 -8°C° 0.1 mm 4 mps 674 mmHg 90%
    19:00 -8°C° 0.1 mm 4 mps 674 mmHg 90%
    20:00 -9°C° 0.1 mm 4 mps 674 mmHg 91%
    21:00 -9°C° 0.1 mm 4 mps 674 mmHg 91%
    22:00 -9°C° 0.1 mm 4 mps 674 mmHg 91%
    23:00 -9°C° 0.1 mm 4 mps 674 mmHg 91%

    26 January, Saturday

    Time Temperature Precipitation Wind Pressure Humidity
    00:00 -9°C° 0.1 mm 4 mps 674 mmHg 91%
    01:00 -9°C° 0.1 mm 4 mps 674 mmHg 92%
    02:00 -9°C° 0.1 mm 4 mps 674 mmHg 92%
    03:00 -10°C° 0.1 mm 4 mps 674 mmHg 92%
    04:00 -10°C° 0.1 mm 4 mps 674 mmHg 92%
    05:00 -10°C° 0.1 mm 4 mps 674 mmHg 92%
    06:00 -10°C° 0.1 mm 4 mps 674 mmHg 92%
    07:00 -10°C° 0.1 mm 4 mps 675 mmHg 92%
    08:00 -9°C° 0 mm 4 mps 675 mmHg 92%
    09:00 -8°C° 0 mm 4 mps 675 mmHg 92%
    10:00 -8°C° 0 mm 4 mps 676 mmHg 91%
    11:00 -7°C° 0 mm 4 mps 676 mmHg 91%
    12:00 -5°C° 0 mm 4 mps 676 mmHg 91%
    13:00 -4°C° 0 mm 4 mps 676 mmHg 90%
    14:00 -5°C° 0 mm 3 mps 677 mmHg 91%
    15:00 -5°C° 0 mm 3 mps 677 mmHg 91%
    16:00 -6°C° 0 mm 3 mps 677 mmHg 91%
    17:00 -7°C° 0 mm 3 mps 677 mmHg 92%
    18:00 -8°C° 0 mm 3 mps 677 mmHg 93%
    19:00 -9°C° 0 mm 3 mps 677 mmHg 94%
    20:00 -9°C° 0 mm 3 mps 677 mmHg 94%
    21:00 -9°C° 0 mm 2 mps 677 mmHg 94%
    22:00 -9°C° 0 mm 2 mps 677 mmHg 94%
    23:00 -9°C° 0 mm 2 mps 677 mmHg 94%

    27 January, Sunday

    Time Temperature Precipitation Wind Pressure Humidity
    00:00 -10°C° 0 mm 2 mps 677 mmHg 94%
    01:00 -10°C° 0 mm 2 mps 677 mmHg 95%
    02:00 -10°C° 0 mm 2 mps 677 mmHg 95%
    03:00 -10°C° 0 mm 2 mps 677 mmHg 95%
    04:00 -10°C° 0 mm 2 mps 677 mmHg 95%
    05:00 -10°C° 0 mm 2 mps 677 mmHg 95%
    06:00 -10°C° 0 mm 2 mps 677 mmHg 95%
    07:00 -10°C° 0 mm 2 mps 677 mmHg 95%
    08:00 -8°C° 0 mm 2 mps 678 mmHg 94%
    09:00 -6°C° 0 mm 2 mps 678 mmHg 94%
    10:00 -5°C° 0 mm 2 mps 679 mmHg 93%
    11:00 -2°C° 0 mm 1 mps 679 mmHg 93%
    12:00 -1°C° 0 mm 1 mps 679 mmHg 92%
    13:00 +1°C° 0 mm 1 mps 679 mmHg 92%
    14:00 +1°C° 0 mm 1 mps 679 mmHg 91%
    15:00 0°C° 0 mm 1 mps 679 mmHg 91%
    16:00 -1°C° 0 mm 0 mps 679 mmHg 91%
    17:00 0°C° 0 mm 1 mps 679 mmHg 91%
    18:00 -1°C° 0 mm 1 mps 679 mmHg 91%
    19:00 -2°C° 0 mm 1 mps 679 mmHg 92%
    20:00 -3°C° 0 mm 1 mps 679 mmHg 92%
    21:00 -4°C° 0 mm 1 mps 679 mmHg 91%
    22:00 -4°C° 0 mm 1 mps 680 mmHg 91%
    23:00 -4°C° 0 mm 1 mps 680 mmHg 91%
    Show more